Tracking 19563 objects as of 20-Mar-2019
HD Live streaming from Space Station
objects crossing your sky now

FENGYUN 1C DEB

Track FENGYUN 1C DEB now!
10-day predictions


NORAD ID: 31655
Int'l Code: 1999-025CBM
Perigee: 840.7 km
Apogee: 1,333.6 km
Inclination: 99.3 °
Period: 106.8 minutes
Semi major axis: 7458 km
RCS: 0.0098 m2 (small)
Launch date: May 10, 1999
Source: People's Republic of China (PRC)
Launch site: Taiyaun Space Center, China (TSC)

Note: This is SATELLITE DEBRIS
aabbcc
Your satellite tracking list
Your tracking list is empty




NASA's NSSDC Master Catalog

Two Line Element Set (TLE):
1 31655U 99025CBM 19055.13047046  .00001280  00000-0  15389-2 0  9999
2 31655  99.2980 119.0466 0330396 304.7925  81.5533 13.47892621587772
Source of the keplerian elements: AFSPC